EHI
0 0 0 0 0 0 0 0 0 0 1 2 7 14 23 30 31 29 29 31 35 39 43 46 46 46 46 44 44 45 46 46 42 37 35 34 33 31 27 23 21 21 22 23
0 0 0 0 0 0 0 0 0 1 2 5 10 18 25 29 30 27 28 34 38 40 44 44 44 45 46 46 45 47 47 45 41 36 34 33 31 31 29 26 24 23 24 25
0 0 0 0 0 0 0 0 1 2 4 7 13 19 24 29 30 28 30 37 41 42 43 44 43 44 45 46 48 48 47 43 39 35 32 30 28 28 29 29 27 26 26 26
0 0 0 0 0 0 0 1 1 3 6 10 14 17 21 26 30 32 33 37 41 42 43 44 44 45 46 47 48 46 44 41 38 35 31 28 26 25 26 26 25 24 24 25
0 0 0 0 0 1 1 2 3 5 8 12 14 16 18 23 28 32 35 38 40 42 44 44 44 46 49 49 46 43 41 38 35 33 30 27 26 25 24 24 22 20 21 22
0 0 0 0 1 2 3 3 5 8 11 13 15 16 17 20 26 33 37 38 38 41 44 44 42 44 47 47 43 39 37 34 31 29 28 27 27 26 25 25 23 21 20 19
0 0 0 0 1 2 3 3 6 10 13 14 15 16 18 23 30 37 41 39 37 40 43 43 42 44 45 43 39 35 34 31 28 26 26 27 26 26 26 26 25 22 20 18
0 0 0 0 1 2 3 5 7 12 16 17 19 21 24 29 35 40 43 42 41 42 43 43 45 47 45 40 36 35 34 32 29 25 25 26 25 25 25 24 23 21 19 17
1 1 1 1 2 4 6 8 12 17 20 23 26 28 30 33 37 41 43 44 46 46 45 44 46 48 44 40 39 39 38 34 29 26 24 24 24 23 22 21 19 18 17 16
3 3 3 3 4 7 10 13 18 22 26 30 32 33 33 34 37 41 43 45 47 46 44 43 45 45 43 41 42 43 40 34 29 25 21 20 20 19 19 19 18 17 17 16
5 5 6 6 7 10 14 17 22 27 32 35 37 37 36 35 36 39 42 43 44 42 41 40 41 42 41 40 40 41 39 34 30 27 21 16 14 14 13 14 15 16 15 14
5 6 6 7 9 13 17 20 24 30 35 38 38 38 38 35 33 34 37 40 39 37 36 37 37 39 39 37 36 37 36 33 31 28 22 16 13 11 9 9 9 9 9 8
6 6 6 7 9 14 18 20 25 31 35 36 35 35 35 31 27 28 31 33 32 32 33 34 35 36 36 34 34 34 32 30 29 26 22 18 15 12 8 7 6 4 3 3
7 7 6 7 10 15 18 21 26 30 32 31 30 29 28 26 23 23 24 26 27 28 30 32 34 33 31 30 31 32 30 27 25 24 23 21 19 15 11 9 7 5 2 1
9 8 8 9 12 16 19 21 25 28 29 27 25 23 22 22 21 20 20 21 23 24 25 27 29 28 26 26 28 29 27 24 23 24 23 23 23 20 16 12 10 8 4 2
9 10 11 12 14 16 19 20 22 24 24 23 20 18 16 17 18 18 17 17 18 19 20 23 25 25 24 24 25 25 23 21 21 22 20 20 23 22 19 17 14 10 7 5
7 8 11 12 13 15 18 18 19 20 19 18 17 16 14 13 14 15 15 14 15 15 16 19 21 21 21 20 20 20 18 18 19 19 18 17 17 17 18 18 17 14 9 7
6 8 11 11 12 14 16 16 16 17 16 16 15 14 13 12 13 14 15 15 15 15 15 15 15 15 16 16 15 14 13 14 17 17 16 14 12 12 13 15 17 15 10 6
7 10 11 12 13 14 15 14 14 14 14 13 12 11 11 12 13 14 15 16 17 18 16 13 11 11 13 14 14 12 11 12 13 13 12 10 8 8 8 10 12 12 9 5
7 8 10 11 13 14 14 14 13 13 11 10 9 10 11 12 14 15 15 16 18 17 15 12 10 11 12 12 12 11 11 11 11 10 10 8 6 5 5 5 6 6 6 5
6 6 8 11 12 12 12 13 14 13 10 7 7 9 11 12 13 14 14 14 14 13 12 10 10 10 10 9 10 11 11 11 10 10 9 7 5 4 4 3 3 3 4 4
4 4 7 10 12 12 12 12 12 11 9 8 7 8 9 11 12 14 13 11 9 9 10 9 8 7 7 8 9 9 9 9 9 9 8 7 5 4 3 3 3 3 2 2
4 5 7 10 12 12 12 10 9 8 9 9 8 8 8 10 12 13 12 8 6 7 7 6 5 4 5 6 8 7 7 6 6 6 5 4 3 3 2 2 2 1 1 1
6 7 7 9 9 9 9 7 6 6 7 9 9 8 9 10 12 12 9 6 3 3 3 2 1 1 2 4 6 5 5 4 3 3 2 2 1 1 1 1 1 0 0 0
8 7 7 6 6 6 5 4 4 4 5 7 8 8 8 10 11 9 6 3 1 1 1 0 0 0 1 2 3 3 3 1 1 1 1 0 0 0 0 0 0 0 0 0
6 5 4 4 4 4 3 3 3 3 4 5 5 6 7 9 8 6 3 1 0 0 1 0 0 0 0 1 1 1 1 0 0 0 0 0 0 0 0 0 0 0 0 0
4 4 3 3 3 3 3 3 3 3 3 4 4 5 6 8 6 3 1 0 0 0 1 0 0 0 0 0 0 0 0 0 0 0 0 0 0 0 0 0 0 0 0 0
Wind_Speed
4 4 1 2 4 3 4 8 8 7 7 7 8 9 9 9 9 9 9 9 10 10 8 8 8 7 8 8 8 8 8 8 8 7 6 5 5 5 4 4 4 4 3 2
2 2 2 3 4 4 5 4 5 5 4 5 4 5 6 8 10 10 10 10 10 10 9 9 9 8 8 8 8 8 8 8 7 6 6 6 5 5 4 4 3 3 3 3
2 3 3 4 4 3 3 3 6 7 7 4 5 7 9 9 10 10 10 10 10 11 10 9 9 9 9 8 8 8 8 7 7 7 7 6 6 6 5 5 4 4 4 3
2 2 4 10 5 2 1 2 3 5 6 10 10 9 8 8 10 9 10 10 10 9 9 8 7 8 7 7 8 8 7 7 7 7 7 6 6 6 5 4 4 4 4 4
4 2 5 7 4 1 2 3 1 5 5 6 6 5 1 3 7 9 10 9 9 9 9 8 9 8 8 8 7 7 7 7 7 8 7 7 7 6 5 5 4 4 4 4
4 3 5 8 7 2 5 2 3 3 6 6 7 5 4 5 6 7 6 6 7 7 7 8 8 8 8 7 8 8 8 7 7 7 7 7 7 6 5 5 5 4 4 4
4 3 6 8 6 3 3 6 4 3 5 6 6 7 6 6 7 7 7 7 8 8 7 8 8 8 8 7 8 8 7 6 6 7 7 7 6 5 5 5 4 4 4 4
4 3 7 6 2 2 6 4 2 3 4 5 4 3 3 5 7 8 7 7 8 7 6 6 7 8 8 7 6 6 6 6 6 6 6 6 5 5 5 5 5 5 4 4
8 8 7 2 2 3 3 1 1 2 3 5 4 3 4 4 6 7 8 7 7 7 6 4 6 7 8 6 5 6 6 6 5 5 5 5 6 6 4 4 4 4 4 4
1 3 3 1 1 1 1 1 1 3 4 5 4 3 4 5 5 5 5 6 6 7 6 5 5 6 6 5 6 7 6 6 5 5 5 4 4 5 5 5 5 5 5 5
1 2 3 5 4 2 2 3 3 3 3 4 6 4 4 4 5 5 5 4 5 7 6 6 5 5 5 5 6 6 6 5 5 5 5 5 4 4 5 5 6 6 6 5
4 4 2 5 5 3 2 2 3 4 4 3 5 5 4 4 4 4 4 4 4 5 5 5 5 4 4 4 6 7 6 5 5 5 5 4 4 3 4 5 7 8 8 7
4 3 3 5 3 2 1 0 2 4 5 4 3 4 4 4 3 3 3 4 5 5 5 5 5 4 4 5 6 7 7 6 5 5 5 5 5 5 4 3 3 5 7 8
2 1 3 4 3 3 2 1 3 4 4 5 3 3 3 3 3 3 3 3 4 4 4 4 4 4 5 5 5 6 6 7 6 6 6 6 6 5 5 5 4 3 4 7
4 2 3 3 3 2 2 2 3 4 4 4 4 4 3 3 2 2 2 2 3 3 3 3 4 5 4 4 5 5 5 5 5 5 5 5 5 5 5 5 5 3 2 2
3 3 2 2 1 1 2 2 2 2 3 3 2 2 2 2 2 2 2 3 3 3 3 3 4 4 3 4 4 4 4 6 5 4 4 4 5 5 5 5 5 5 5 4
2 3 2 1 2 0 1 2 2 2 2 2 2 2 2 2 1 1 2 2 3 3 3 3 4 3 3 3 4 3 3 4 6 4 4 5 5 5 5 5 5 5 5 6
4 4 3 3 2 1 1 1 2 2 1 1 2 1 1 2 3 3 3 1 1 1 2 3 3 3 3 3 3 3 3 3 3 4 4 4 4 4 4 5 5 5 4 5
3 3 2 2 2 2 2 2 2 2 1 1 1 1 1 2 2 2 2 2 2 2 3 3 4 4 3 4 3 2 3 3 4 3 3 4 4 3 3 4 4 4 4 4
0 0 1 1 0 1 2 2 2 2 1 1 1 1 0 1 1 1 2 2 3 3 3 3 3 3 3 3 3 2 3 3 3 3 3 3 4 3 3 4 4 4 4 4
1 1 2 1 1 1 2 2 2 2 2 2 3 2 2 1 1 1 1 2 3 2 1 3 3 2 2 2 3 2 3 3 3 3 3 3 3 3 3 3 3 4 4 4
1 1 1 1 1 1 1 1 2 2 1 1 2 2 2 1 1 1 2 2 2 1 1 1 2 2 3 2 2 3 2 2 2 2 2 2 2 3 3 3 3 3 3 4
1 1 1 1 1 1 2 1 0 1 1 1 2 2 3 2 2 2 1 2 1 1 1 1 2 2 2 1 2 3 3 3 3 2 2 2 2 3 3 3 2 2 3 3
0 0 0 0 2 2 2 2 2 0 1 1 1 1 2 2 1 1 1 1 1 1 1 1 1 1 0 1 1 2 2 2 2 2 2 2 2 2 2 2 2 2 3 4
0 0 1 1 1 0 1 0 1 1 1 1 1 1 1 1 2 0 0 0 0 0 0 0 1 1 1 1 1 1 1 1 1 1 2 2 2 2 2 2 3 3 3 3
1 1 0 0 1 1 0 0 0 0 1 1 1 1 1 1 1 1 1 0 1 1 1 1 1 2 2 2 2 1 1 1 1 1 1 2 2 2 2 2 3 2 2 2
2 2 2 2 2 1 1 1 1 0 1 2 1 1 1 1 1 1 2 1 1 2 2 2 2 2 2 2 2 2 1 2 2 1 1 1 1 2 2 3 3 3 3 3
Wind_Direction
214 228 201 241 245 216 184 181 175 205 196 216 200 179 171 161 155 156 159 161 165 167 165 164 163 165 169 170 167 167 169 176 186 185 178 170 169 171 167 163 163 160 155 159
318 308 359 312 272 226 217 193 173 160 211 229 184 144 143 153 153 164 168 169 168 167 167 170 168 166 166 166 166 163 171 182 182 175 172 172 173 169 163 164 163 156 165 172
261 303 18 284 250 227 236 209 165 182 209 172 145 152 160 159 158 168 173 171 171 173 175 176 174 167 169 167 160 163 172 177 175 173 174 179 175 169 171 174 167 163 173 175
125 63 227 243 251 209 199 249 177 175 178 165 173 174 167 157 158 167 176 175 175 173 172 171 166 162 163 158 160 168 175 178 177 175 177 177 174 177 181 177 178 183 186 185
115 161 269 293 294 168 134 297 228 161 160 160 146 103 84 178 162 174 177 174 173 173 166 161 160 160 157 160 163 169 178 182 182 178 179 179 181 185 185 178 185 191 188 187
123 152 223 253 281 310 94 307 301 146 150 146 120 123 225 207 165 156 150 152 155 153 147 155 162 158 154 165 170 182 188 187 181 177 180 185 190 188 184 181 191 188 193 199
146 192 252 261 289 26 125 228 259 159 148 141 155 187 203 175 157 151 145 146 147 147 154 166 162 154 160 169 186 193 186 179 180 182 186 187 187 186 178 177 181 190 198 209
147 179 247 283 25 142 212 237 216 160 150 142 148 148 143 148 151 144 137 140 145 145 155 160 158 157 167 186 193 179 171 175 182 185 188 183 179 185 183 179 186 196 200 213
181 208 233 258 181 203 181 180 209 156 137 124 122 131 135 145 151 149 148 147 145 142 142 151 162 165 178 194 176 168 172 180 186 184 184 179 182 188 187 188 196 203 202 211
159 251 254 296 46 36 85 118 176 145 136 127 130 145 146 146 149 147 148 151 147 144 150 165 172 171 182 184 171 170 181 187 184 181 183 184 189 191 193 197 204 208 207 214
159 283 350 348 348 340 31 54 72 88 103 121 127 131 140 142 143 147 151 151 154 158 166 176 174 178 185 176 169 176 184 187 186 185 184 189 195 199 201 208 205 204 209 202
212 229 205 271 293 342 38 54 98 99 83 93 117 125 127 140 147 143 150 149 152 160 166 176 175 182 191 180 176 177 184 189 191 193 193 193 188 206 227 219 222 218 211 199
215 252 247 263 287 346 36 97 106 113 120 112 97 112 123 134 137 130 138 152 164 172 175 176 176 185 194 188 184 187 193 195 195 195 194 196 194 197 214 246 235 222 220 211
271 316 314 297 298 323 341 12 93 98 100 111 108 103 115 118 125 132 156 180 174 172 172 173 183 203 206 193 189 196 199 200 198 200 200 202 203 205 204 205 221 237 233 221
277 256 245 283 321 339 352 42 85 92 88 82 93 96 102 120 140 160 189 187 160 165 181 187 203 223 215 198 199 205 208 209 205 205 204 204 205 204 206 209 211 210 196 216
281 305 304 317 279 167 101 84 103 114 115 114 111 129 137 149 160 191 201 178 160 182 199 200 219 233 217 203 204 209 216 216 208 208 209 210 207 204 207 208 208 204 202 200
273 289 287 276 293 252 132 139 155 156 136 147 175 173 127 111 134 208 224 199 185 194 201 205 223 227 208 203 205 211 212 212 207 212 216 215 210 207 206 205 208 208 209 198
231 231 221 208 232 238 158 133 123 113 127 172 165 130 116 161 197 217 219 198 169 232 231 219 220 224 217 210 206 201 200 204 209 216 219 215 213 208 203 202 203 207 209 194
227 231 238 228 228 200 171 164 150 130 139 141 138 177 219 215 212 219 195 159 171 219 245 236 231 230 227 224 209 198 199 206 209 212 210 208 209 209 207 203 202 207 198 182
251 253 265 262 249 168 164 161 140 123 160 166 163 163 179 220 196 202 197 210 225 225 231 233 229 228 225 216 200 208 206 204 207 207 203 204 203 199 201 206 200 196 190 186
47 35 33 44 49 76 135 136 134 155 204 184 176 184 180 185 190 195 198 253 273 257 236 231 225 220 219 212 204 211 207 195 199 200 198 198 197 194 198 199 194 189 185 182
28 32 42 71 87 60 77 126 151 167 190 179 173 168 162 177 196 214 220 219 232 253 293 268 252 227 216 211 204 202 206 200 196 192 196 196 194 193 200 193 184 181 179 177
42 356 348 2 101 89 43 20 217 158 160 165 171 170 173 180 174 169 231 262 231 223 258 277 276 253 216 211 206 197 193 196 194 189 195 207 208 199 193 185 175 165 162 162
85 1 292 60 79 72 36 329 317 339 140 144 145 158 152 151 145 188 175 189 216 236 281 266 278 293 236 307 205 183 176 181 189 189 188 185 176 170 166 156 148 141 139 140
94 321 11 71 85 145 245 270 28 46 69 56 42 46 100 136 151 165 104 131 175 61 23 288 325 27 37 31 52 97 125 151 163 159 153 157 155 149 154 156 153 152 154 157
86 36 348 280 214 198 184 135 126 104 112 85 16 24 59 67 88 96 89 89 79 58 38 15 25 50 48 45 51 69 78 95 110 135 153 153 151 153 150 144 141 139 139 138
48 39 34 25 11 13 84 122 125 135 144 135 113 44 70 73 71 95 88 74 70 60 48 36 40 49 54 52 35 31 50 66 73 82 100 109 116 126 122 121 117 110 105 101